TimeCST,TemperatureF,Dew PointF,Humidity,Sea Level PressureIn,VisibilityMPH,Wind Direction,Wind SpeedMPH,Gust SpeedMPH,PrecipitationIn,Events,Conditions,WindDirDegrees,DateUTC
12:15 AM,23.0,3.2,43,30.11,10.0,West,4.6,-,N/A,,Clear,280,2014-01-22 06:15:00
12:35 AM,21.2,5.0,50,30.11,10.0,West,6.9,-,N/A,,Clear,280,2014-01-22 06:35:00
12:55 AM,21.2,5.0,50,30.11,10.0,West,8.1,-,N/A,,Clear,260,2014-01-22 06:55:00
1:15 AM,21.2,6.8,54,30.11,10.0,West,6.9,-,N/A,,Clear,280,2014-01-22 07:15:00
1:35 AM,21.2,6.8,54,30.10,10.0,WNW,5.8,-,N/A,,Clear,290,2014-01-22 07:35:00
1:55 AM,21.2,6.8,54,30.11,10.0,WNW,5.8,-,N/A,,Clear,300,2014-01-22 07:55:00
2:15 AM,23.0,8.6,54,30.11,10.0,WNW,5.8,-,N/A,,Clear,290,2014-01-22 08:15:00
2:35 AM,21.2,8.6,58,30.11,10.0,NNW,4.6,-,N/A,,Clear,330,2014-01-22 08:35:00
2:55 AM,23.0,8.6,54,30.11,10.0,North,8.1,-,N/A,,Clear,350,2014-01-22 08:55:00
3:15 AM,23.0,8.6,54,30.11,10.0,NNW,6.9,-,N/A,,Clear,340,2014-01-22 09:15:00
3:35 AM,21.2,8.6,58,30.12,10.0,NNW,4.6,-,N/A,,Clear,330,2014-01-22 09:35:00
3:55 AM,21.2,8.6,58,30.13,10.0,NW,5.8,-,N/A,,Clear,310,2014-01-22 09:55:00
4:15 AM,21.2,6.8,54,30.12,10.0,North,6.9,-,N/A,,Clear,350,2014-01-22 10:15:00
4:35 AM,21.2,8.6,58,30.13,10.0,WNW,5.8,-,N/A,,Clear,290,2014-01-22 10:35:00
4:55 AM,21.2,8.6,58,30.13,10.0,West,5.8,-,N/A,,Clear,270,2014-01-22 10:55:00
5:15 AM,19.4,8.6,63,30.13,10.0,West,3.5,-,N/A,,Clear,280,2014-01-22 11:15:00
5:35 AM,19.4,10.4,68,30.14,10.0,West,5.8,-,N/A,,Clear,280,2014-01-22 11:35:00
5:55 AM,21.2,10.4,63,30.14,10.0,NW,5.8,-,N/A,,Clear,310,2014-01-22 11:55:00
6:15 AM,21.2,10.4,63,30.15,10.0,West,4.6,-,N/A,,Clear,280,2014-01-22 12:15:00
6:35 AM,19.4,10.4,68,30.15,10.0,West,6.9,-,N/A,,Clear,260,2014-01-22 12:35:00
6:55 AM,21.2,10.4,63,30.17,10.0,West,5.8,-,N/A,,Clear,270,2014-01-22 12:55:00
7:15 AM,21.2,10.4,63,30.17,10.0,West,5.8,-,N/A,,Clear,270,2014-01-22 13:15:00
7:35 AM,21.2,12.2,68,30.18,10.0,WNW,5.8,-,N/A,,Clear,300,2014-01-22 13:35:00
7:55 AM,23.0,12.2,63,30.18,10.0,NW,8.1,-,N/A,,Clear,310,2014-01-22 13:55:00
8:15 AM,23.0,12.2,63,30.19,10.0,NW,5.8,-,N/A,,Clear,320,2014-01-22 14:15:00
8:35 AM,24.8,15.8,69,30.20,10.0,NW,8.1,-,N/A,,Clear,320,2014-01-22 14:35:00
8:55 AM,26.6,15.8,64,30.21,10.0,NW,9.2,-,N/A,,Clear,320,2014-01-22 14:55:00
9:15 AM,28.4,17.6,64,30.22,10.0,NNW,11.5,-,N/A,,Clear,340,2014-01-22 15:15:00
9:35 AM,30.2,17.6,60,30.23,10.0,North,11.5,-,N/A,,Clear,350,2014-01-22 15:35:00
9:55 AM,32.0,17.6,55,30.23,10.0,North,17.3,21.9,N/A,,Clear,350,2014-01-22 15:55:00
10:15 AM,33.8,19.4,56,30.24,10.0,North,16.1,21.9,N/A,,Clear,360,2014-01-22 16:15:00
10:35 AM,35.6,19.4,52,30.25,10.0,North,17.3,21.9,N/A,,Clear,350,2014-01-22 16:35:00
10:55 AM,37.4,19.4,48,30.24,10.0,North,17.3,26.5,N/A,,Clear,10,2014-01-22 16:55:00
11:15 AM,37.4,15.8,41,30.24,10.0,NNW,17.3,28.8,N/A,,Clear,340,2014-01-22 17:15:00
11:35 AM,37.4,15.8,41,30.23,10.0,North,18.4,23.0,N/A,,Clear,360,2014-01-22 17:35:00
11:55 AM,37.4,15.8,41,30.22,10.0,North,17.3,24.2,N/A,,Clear,10,2014-01-22 17:55:00
12:15 PM,39.2,15.8,39,30.21,10.0,North,19.6,23.0,N/A,,Clear,350,2014-01-22 18:15:00
12:35 PM,39.2,15.8,39,30.20,10.0,NNW,15.0,21.9,N/A,,Clear,340,2014-01-22 18:35:00
12:55 PM,39.2,15.8,39,30.19,10.0,NNW,17.3,24.2,N/A,,Clear,340,2014-01-22 18:55:00
1:15 PM,39.2,15.8,39,30.18,10.0,NNW,15.0,24.2,N/A,,Clear,340,2014-01-22 19:15:00
1:35 PM,39.2,15.8,39,30.17,10.0,NNW,18.4,26.5,N/A,,Clear,340,2014-01-22 19:35:00
1:55 PM,41.0,14.0,33,30.17,10.0,North,19.6,-,N/A,,Clear,350,2014-01-22 19:55:00
2:15 PM,41.0,14.0,33,30.17,10.0,North,20.7,26.5,N/A,,Clear,360,2014-01-22 20:15:00
2:35 PM,39.2,14.0,36,30.16,10.0,North,17.3,27.6,N/A,,Clear,10,2014-01-22 20:35:00
2:55 PM,39.2,14.0,36,30.16,10.0,North,18.4,23.0,N/A,,Clear,360,2014-01-22 20:55:00
3:15 PM,39.2,14.0,36,30.16,10.0,North,18.4,26.5,N/A,,Clear,360,2014-01-22 21:15:00
3:35 PM,39.2,12.2,33,30.16,10.0,North,20.7,24.2,N/A,,Clear,360,2014-01-22 21:35:00
3:55 PM,39.2,12.2,33,30.16,10.0,North,18.4,26.5,N/A,,Clear,360,2014-01-22 21:55:00
4:15 PM,39.2,12.2,33,30.17,10.0,North,16.1,26.5,N/A,,Clear,10,2014-01-22 22:15:00
4:35 PM,37.4,12.2,36,30.18,10.0,North,16.1,24.2,N/A,,Partly Cloudy,360,2014-01-22 22:35:00
4:55 PM,37.4,12.2,36,30.18,10.0,North,17.3,21.9,N/A,,Clear,10,2014-01-22 22:55:00
5:15 PM,37.4,12.2,36,30.19,10.0,North,15.0,23.0,N/A,,Clear,10,2014-01-22 23:15:00
5:35 PM,35.6,12.2,38,30.20,10.0,North,13.8,18.4,N/A,,Clear,10,2014-01-22 23:35:00
5:55 PM,35.6,12.2,38,30.21,10.0,North,13.8,-,N/A,,Clear,10,2014-01-22 23:55:00
6:15 PM,33.8,12.2,41,30.22,10.0,North,10.4,-,N/A,,Clear,360,2014-01-23 00:15:00
6:35 PM,32.0,12.2,44,30.24,10.0,North,10.4,-,N/A,,Clear,360,2014-01-23 00:35:00
6:55 PM,32.0,14.0,48,30.25,10.0,North,13.8,19.6,N/A,,Clear,10,2014-01-23 00:55:00
7:15 PM,30.2,14.0,51,30.27,10.0,NNE,19.6,29.9,N/A,,Clear,20,2014-01-23 01:15:00
7:35 PM,28.4,14.0,55,30.29,10.0,NNE,18.4,26.5,N/A,,Clear,20,2014-01-23 01:35:00
7:55 PM,26.6,12.2,55,30.31,10.0,NNE,21.9,26.5,N/A,,Clear,20,2014-01-23 01:55:00
8:15 PM,26.6,10.4,51,30.32,10.0,NNE,18.4,28.8,N/A,,Clear,20,2014-01-23 02:15:00
8:35 PM,24.8,8.6,50,30.34,10.0,North,25.3,29.9,N/A,,Clear,10,2014-01-23 02:35:00
8:55 PM,24.8,8.6,50,30.36,10.0,NNE,21.9,26.5,N/A,,Scattered Clouds,20,2014-01-23 02:55:00
9:15 PM,23.0,5.0,46,30.37,10.0,NNE,24.2,29.9,N/A,,Mostly Cloudy,20,2014-01-23 03:15:00
9:35 PM,21.2,5.0,50,30.37,10.0,NNE,27.6,33.4,N/A,,Overcast,20,2014-01-23 03:35:00
9:55 PM,21.2,3.2,46,30.39,10.0,NNE,25.3,33.4,N/A,,Overcast,20,2014-01-23 03:55:00
10:15 PM,19.4,1.4,46,30.40,10.0,North,26.5,34.5,N/A,,Overcast,10,2014-01-23 04:15:00
10:35 PM,17.6,-0.4,45,30.42,10.0,NNE,23.0,32.2,N/A,,Overcast,20,2014-01-23 04:35:00
10:55 PM,17.6,-0.4,45,30.42,10.0,NNE,23.0,33.4,N/A,,Mostly Cloudy,20,2014-01-23 04:55:00
11:15 PM,15.8,-2.2,45,30.44,10.0,NNE,24.2,33.4,N/A,,Mostly Cloudy,30,2014-01-23 05:15:00
11:35 PM,14.0,-5.8,41,30.45,10.0,NNE,25.3,31.1,N/A,,Mostly Cloudy,20,2014-01-23 05:35:00
11:55 PM,12.2,-5.8,45,30.46,10.0,North,26.5,35.7,N/A,,Partly Cloudy,10,2014-01-23 05:55:00